RH
12 11 10 7 6 5 5 5 6 7 7 8 8 16 20 18 17 17 16 14 7 5 7 7 7 8 9 10 13 14 18 15 16 16 17 17 16 15 12 11 11 10 10 10 11 10 10
11 10 8 6 5 5 5 5 6 6 6 8 20 21 21 22 20 17 16 15 15 13 6 6 7 7 8 8 12 16 16 16 18 17 18 18 18 15 12 11 10 10 9 10 11 11 10
8 7 6 4 4 4 4 5 5 6 11 22 23 24 26 25 22 18 14 15 13 13 15 11 7 8 8 9 8 10 15 16 16 17 18 19 19 17 14 13 12 11 10 11 11 11 10
5 4 4 4 4 4 4 5 6 14 22 22 21 19 20 24 25 22 17 13 13 12 9 12 14 12 10 10 12 12 11 11 15 17 18 19 19 19 17 15 14 14 13 10 10 12 12
4 4 4 4 4 4 4 5 7 17 20 19 17 18 22 22 23 20 14 13 13 13 14 10 10 10 12 12 12 13 12 12 13 12 16 18 20 20 19 18 18 15 15 12 13 12 14
4 4 4 4 4 4 6 10 14 21 27 27 24 22 20 18 17 17 16 16 14 13 12 14 13 10 12 12 11 10 10 13 13 14 14 16 19 20 19 19 19 17 18 19 16 16 21
6 5 5 5 5 22 33 32 30 27 25 17 14 17 20 20 16 13 12 11 11 12 10 11 12 12 12 14 15 14 12 10 12 14 16 16 17 16 20 22 20 18 28 33 13 20 32
6 7 7 6 16 30 27 27 26 18 15 19 21 17 15 14 12 9 7 8 10 11 9 12 12 12 10 10 14 16 16 15 14 16 18 19 17 20 20 19 19 20 33 24 18 18 25
12 12 12 11 13 19 23 19 14 20 22 18 15 14 12 10 9 7 8 11 13 15 15 14 14 18 18 16 16 17 18 19 19 17 20 22 18 22 22 22 19 19 26 17 19 21 22
17 18 20 21 22 21 14 17 24 21 15 13 12 11 10 10 9 10 12 13 13 15 17 16 22 26 19 16 19 20 19 21 19 20 22 23 19 20 18 17 21 22 17 20 22 28 30
20 26 25 19 14 14 23 26 20 14 12 11 11 12 12 11 12 14 13 11 12 16 37 21 22 21 22 19 20 21 20 18 18 19 21 19 19 22 26 23 22 18 18 24 35 40 50
26 19 16 12 18 27 27 21 15 13 14 15 13 10 10 11 14 13 12 10 11 17 20 22 25 24 21 21 19 18 18 18 18 18 20 19 24 27 21 22 21 24 35 44 46 48 64
17 16 11 20 30 31 22 14 16 17 14 12 12 12 13 14 14 13 12 10 11 17 20 23 25 25 22 17 15 15 17 22 29 38 32 26 21 18 20 22 26 35 47 59 60 83 70
15 12 23 31 31 18 15 19 16 12 13 13 15 17 18 17 16 14 13 10 10 14 16 20 21 19 14 12 16 30 36 25 17 18 30 44 34 24 31 27 36 39 42 55 60 69 51
12 20 31 29 17 19 18 14 14 14 14 18 20 19 16 15 15 13 13 11 9 13 18 17 12 14 19 26 24 20 14 12 23 45 52 46 41 34 34 35 43 40 39 37 53 47 62
22 32 22 18 21 16 13 12 13 16 20 20 17 15 15 13 13 14 12 10 13 13 14 16 19 18 18 14 12 14 15 13 18 32 42 52 58 35 36 41 40 41 38 50 58 64 67
27 20 21 18 15 15 14 13 17 21 19 17 17 16 13 13 14 11 10 11 13 13 14 19 22 20 18 18 23 38 36 27 28 28 46 60 57 34 36 32 34 39 45 52 53 49 56
22 22 16 14 14 13 14 18 21 20 19 17 16 13 12 11 10 9 9 11 12 12 12 16 18 22 38 44 46 59 56 62 58 77 75 72 75 59 37 37 46 45 43 45 51 51 55
17 14 13 12 13 14 18 22 20 19 18 16 14 14 11 10 8 9 9 9 8 6 8 12 20 27 29 51 66 74 80 85 93 100 97 94 91 92 59 37 41 56 56 58 66 63 54
11 12 10 12 16 22 23 22 21 19 17 15 13 9 7 6 6 4 3 4 4 6 7 11 22 32 40 73 96 88 88 88 78 90 95 96 94 98 89 60 69 71 65 60 76 85 75
10 10 12 19 23 24 23 22 20 16 14 10 7 5 4 4 3 3 3 3 4 7 10 19 45 80 83 82 80 72 85 70 62 56 59 71 70 68 73 91 99 97 90 75 79 87 91
9 14 22 24 25 23 22 19 16 11 7 6 4 4 3 3 3 3 3 6 8 15 22 27 28 36 54 69 76 73 77 79 76 54 49 55 57 52 53 34 36 69 82 69 70 60 60
17 24 26 26 24 22 19 15 11 7 5 5 4 3 2 3 3 3 6 7 11 16 31 38 50 46 43 62 76 76 69 54 54 70 77 98 99 97 88 71 54 56 71 80 90 90 79
25 26 26 25 21 17 12 8 6 5 4 3 3 3 2 2 2 3 6 11 20 31 35 34 41 48 54 43 43 42 48 45 64 73 96 97 93 99 94 83 89 97 100 100 97 97 99
27 27 25 19 13 9 6 5 4 4 4 3 2 2 2 3 7 11 17 26 34 38 38 38 40 46 51 53 57 57 54 46 60 58 84 59 74 96 96 87 85 96 95 96 96 97 96
27 22 15 9 7 5 4 4 4 3 3 2 2 2 5 12 20 27 35 48 49 43 29 32 43 41 43 49 87 98 86 80 71 54 59 64 87 98 96 94 86 99 92 95 97 97 96
19 12 8 6 5 4 4 4 3 3 2 2 3 7 13 16 27 45 61 55 54 52 51 52 52 50 49 64 74 90 87 87 78 88 78 75 72 69 83 86 97 98 89 93 96 97 95
10 7 5 4 4 4 4 3 2 2 2 2 6 16 21 15 40 40 42 54 56 64 63 55 59 66 53 87 93 94 92 89 88 80 92 80 78 86 83 85 95 75 80 89 96 96 96
6 5 4 4 4 3 3 2 2 2 4 4 10 19 19 15 23 29 47 55 62 62 49 55 70 72 80 88 98 98 88 94 94 91 92 86 99 100 100 99 97 96 98 99 100 98 88
Wind_Speed
4 2 1 3 4 4 5 5 6 7 7 8 8 9 11 12 13 14 13 12 11 10 10 10 10 9 8 8 8 9 10 9 9 9 9 8 8 8 8 8 8 9 8 8 8 8 9
5 4 4 5 5 5 6 7 7 8 8 7 8 9 11 13 15 15 15 14 13 12 11 10 10 8 8 11 7 6 7 9 9 10 10 10 10 10 11 12 12 11 11 12 11 11 13
6 7 6 6 6 7 7 7 7 7 7 8 9 11 13 15 16 16 16 16 15 14 13 12 11 10 10 10 9 7 8 10 11 12 12 12 12 12 13 13 15 15 15 15 13 13 16
8 7 7 7 8 8 8 8 7 7 8 10 12 14 16 17 17 19 18 17 17 16 15 15 14 14 14 10 4 4 8 10 11 12 12 13 14 16 16 16 19 18 18 19 15 14 16
7 7 7 7 8 8 8 8 8 9 12 14 17 18 18 18 18 20 20 19 19 18 16 16 15 16 16 10 9 11 16 14 15 14 15 15 16 18 19 19 19 19 17 19 18 17 15
8 8 7 7 8 8 8 9 10 13 15 16 17 19 20 20 20 20 21 21 20 19 18 15 15 9 7 12 18 24 21 18 17 16 17 18 18 20 21 19 19 18 16 18 19 18 20
9 9 8 8 7 7 9 11 12 14 17 19 18 18 20 20 19 17 19 20 22 22 17 19 15 19 23 22 23 22 21 20 19 19 19 19 20 23 18 18 18 22 23 24 23 23 29
9 8 9 9 8 9 12 14 15 16 17 18 19 18 17 18 20 22 23 24 24 24 25 24 19 22 22 22 19 16 16 16 16 17 16 16 19 15 19 20 22 23 25 26 27 24 25
9 9 9 9 10 12 15 16 15 15 17 18 17 18 21 23 25 26 24 23 23 22 22 25 15 6 2 4 4 4 5 6 9 12 14 17 17 19 22 24 23 25 22 26 28 28 31
10 11 11 11 12 14 14 14 16 16 17 18 20 23 25 26 24 22 20 18 17 16 13 7 3 3 3 4 1 7 9 10 11 12 16 14 13 14 15 17 17 26 27 27 26 25 21
11 12 13 12 12 12 13 15 16 18 21 24 25 24 23 22 20 17 15 14 13 11 4 3 3 2 5 7 6 9 10 15 16 18 20 21 24 23 26 27 24 31 29 28 24 22 22
13 13 12 13 12 12 15 16 19 22 24 23 21 20 19 18 16 15 13 12 12 4 4 3 5 6 8 8 16 20 22 23 23 25 24 27 21 23 24 26 30 29 28 26 25 22 6
12 13 13 12 13 15 17 20 22 22 20 19 18 17 16 16 15 12 11 11 6 4 4 4 7 10 14 21 25 24 23 20 15 16 21 27 32 31 27 22 21 23 19 5 4 2 7
13 12 12 12 15 17 20 20 19 18 18 18 18 17 15 15 13 13 11 10 4 5 8 12 16 18 24 23 17 11 15 20 20 22 27 22 27 8 7 18 14 12 14 8 6 3 6
13 12 12 13 16 18 18 18 18 18 18 18 19 18 15 13 12 10 10 3 4 6 9 15 22 18 4 5 8 20 20 22 16 9 15 10 18 18 21 18 18 17 19 21 21 22 5
12 11 12 15 16 15 16 17 19 19 19 19 18 17 13 11 11 10 9 5 8 11 15 18 17 10 15 21 24 21 20 15 16 13 17 18 21 28 19 22 24 21 20 11 9 3 5
11 11 13 13 15 16 17 18 19 19 17 16 15 15 10 13 11 12 8 9 11 13 14 13 18 23 27 27 25 20 12 18 24 26 20 17 19 38 33 31 30 26 27 26 24 18 6
11 12 12 13 15 17 18 19 19 18 15 14 14 14 14 12 15 11 10 11 11 17 20 20 23 22 21 21 23 18 17 17 19 20 21 19 18 26 40 37 27 25 23 24 21 10 11
10 12 12 13 15 18 19 19 17 16 14 14 14 15 11 14 13 11 9 15 20 23 23 20 17 23 28 27 19 10 14 20 21 18 11 17 8 10 15 20 14 21 19 15 15 17 21
11 12 12 13 15 17 18 17 16 16 17 16 17 14 15 16 7 16 18 19 18 20 22 24 23 25 28 27 22 21 25 26 28 23 25 32 24 25 22 24 29 39 31 24 29 20 20
11 12 13 14 15 16 16 16 16 16 16 16 16 15 15 17 19 19 19 20 23 21 22 23 21 19 24 29 33 28 21 31 36 38 30 20 29 32 38 28 33 36 39 41 34 29 21
11 12 14 14 14 15 14 14 16 16 17 17 16 16 16 19 18 19 20 21 23 22 23 26 24 24 23 25 31 39 35 34 39 42 35 34 36 35 39 42 44 38 32 34 29 30 32
11 12 13 14 14 14 15 15 16 17 18 18 18 18 19 17 18 20 19 19 22 24 18 17 22 26 24 22 25 27 27 28 30 37 37 38 35 31 37 25 23 23 24 20 17 19 23
11 12 13 13 14 15 17 18 19 19 19 20 21 21 19 18 17 17 19 18 18 16 17 14 15 18 21 24 27 26 20 17 13 14 7 22 27 23 29 19 8 8 6 8 8 6 8
10 11 12 12 15 17 19 21 22 23 23 22 22 21 19 17 17 13 14 11 11 11 10 10 10 15 19 19 20 19 17 12 10 17 15 23 23 9 6 14 5 6 10 9 2 9 7
9 10 11 13 16 18 19 22 24 25 26 27 26 23 21 18 12 8 9 10 10 8 6 5 7 15 17 17 14 5 4 12 10 14 14 19 19 0 11 5 2 15 16 11 7 4 7
8 10 12 14 17 19 21 23 25 26 28 28 23 21 19 16 10 10 10 11 9 10 11 13 14 17 16 13 11 7 7 9 7 11 16 16 15 15 14 8 1 20 35 23 2 7 14
9 11 13 15 17 20 22 23 25 26 24 25 23 19 16 14 7 11 12 7 7 11 15 17 18 13 14 11 7 11 9 11 9 17 12 10 12 10 11 7 3 26 26 13 13 16 20
9 11 13 16 18 20 22 23 24 22 18 18 19 17 13 12 11 11 6 10 8 17 23 17 13 13 14 11 12 16 21 16 11 10 10 8 17 13 9 10 16 21 22 22 20 21 21
Wind_Direction
218 240 292 322 336 338 328 325 331 331 330 332 341 345 345 349 348 344 336 330 330 331 332 333 332 327 319 315 302 283 280 272 276 275 274 270 265 259 249 247 260 261 269 281 281 291 291
241 263 287 301 308 305 306 312 316 317 318 326 332 333 340 342 342 339 333 327 316 314 317 318 326 331 332 317 302 292 278 265 273 271 272 266 263 262 264 261 261 268 270 276 276 285 295
247 257 269 278 285 293 300 303 306 309 317 320 319 323 325 328 331 332 331 326 319 310 305 302 303 305 304 314 293 279 282 276 278 280 276 277 273 267 267 269 266 264 271 277 273 271 290
242 255 265 275 284 289 296 296 295 298 307 313 315 314 313 314 315 321 320 321 321 316 309 299 294 292 294 294 258 279 295 287 279 273 272 275 272 269 268 269 270 273 277 280 278 264 284
248 258 267 279 288 293 295 298 299 302 307 308 308 309 310 310 311 314 314 315 314 313 310 305 298 290 292 266 252 278 297 284 282 279 276 277 276 271 272 270 272 273 270 276 275 280 282
251 256 265 271 280 293 303 306 309 312 311 311 311 309 310 312 312 313 311 309 307 307 308 303 302 297 275 275 277 286 283 279 278 277 277 279 278 275 274 274 269 280 275 272 273 282 291
248 258 267 277 283 293 300 305 309 309 307 307 311 314 311 312 312 315 317 315 312 309 305 301 292 292 288 285 281 283 283 278 277 279 281 279 277 276 291 277 265 275 271 273 276 285 290
255 266 278 281 282 297 304 306 307 307 308 309 310 310 311 312 311 310 308 307 303 301 301 296 291 290 285 283 284 287 280 280 286 287 288 287 285 286 275 273 272 272 273 278 287 291 292
262 269 274 279 279 284 295 301 305 309 311 309 309 309 309 309 309 309 311 312 308 303 301 292 294 292 295 294 320 325 314 318 305 301 295 285 294 286 281 277 277 273 275 291 296 297 292
269 277 278 280 285 293 301 306 308 309 308 305 305 305 306 306 308 312 314 318 317 319 306 280 272 218 293 313 287 332 320 313 305 304 304 295 297 298 286 280 279 284 296 297 293 291 282
265 271 279 285 290 296 302 306 307 307 307 308 308 307 307 309 309 310 312 315 318 319 353 291 262 246 327 341 318 319 315 309 307 302 292 286 293 289 279 282 286 290 293 291 290 283 275
280 284 285 291 297 302 304 305 307 307 307 309 312 313 313 311 310 310 315 320 317 290 258 266 274 283 299 306 311 308 306 299 299 291 285 291 290 285 290 288 285 281 282 285 281 266 256
272 278 281 288 294 300 305 307 308 310 313 313 312 313 313 311 312 310 314 321 314 222 292 284 277 285 288 296 299 302 297 292 289 297 294 296 292 291 290 289 286 277 273 291 290 200 232
272 277 285 291 296 301 305 308 311 312 311 311 312 313 314 313 311 315 317 318 257 280 282 288 295 297 304 301 299 295 297 296 292 290 284 289 301 290 285 297 280 288 273 215 239 233 263
271 275 282 290 299 304 306 309 310 311 311 313 313 313 314 312 310 310 306 284 241 284 293 302 301 312 326 326 293 304 302 300 294 284 259 280 271 279 291 278 277 281 260 283 251 261 275
263 269 279 292 297 302 306 308 309 309 311 316 317 317 320 313 313 315 308 276 268 284 292 297 305 283 290 291 297 300 301 281 276 270 267 269 278 282 281 276 268 264 267 250 226 231 239
253 267 283 292 299 302 304 306 309 311 314 318 320 320 318 315 315 310 297 285 284 288 293 300 295 292 291 295 296 296 272 272 272 270 265 269 271 272 278 272 270 263 257 253 254 249 246
265 276 284 291 298 303 305 307 309 316 321 319 320 321 318 310 311 304 297 295 289 289 292 289 289 288 285 288 288 287 275 257 275 292 296 282 274 270 268 271 265 263 263 265 248 255 237
262 271 281 293 299 303 307 309 314 317 320 319 317 316 314 312 306 303 296 294 292 292 292 285 275 281 281 282 289 270 262 258 262 277 311 309 261 300 292 279 266 250 252 259 264 265 254
259 272 285 291 300 306 309 315 318 319 318 320 320 318 313 313 296 303 300 294 285 291 290 288 281 278 276 277 270 273 274 275 269 271 270 285 283 263 246 261 284 287 277 267 285 284 282
266 278 287 300 309 311 312 317 317 316 314 315 317 315 312 304 304 303 303 298 294 285 282 281 283 280 288 293 294 297 283 283 283 288 286 289 285 280 271 276 269 268 272 274 281 281 263
269 286 300 305 310 311 314 313 310 311 313 314 319 319 313 311 307 307 305 300 296 294 298 294 293 288 287 291 295 296 300 300 300 304 308 299 288 288 281 272 276 283 278 276 274 272 268
280 292 301 306 312 312 310 310 308 309 312 315 317 318 319 318 313 311 305 298 298 300 308 312 304 301 300 293 293 300 303 309 300 294 299 295 285 275 276 288 286 275 269 268 254 248 255
285 297 300 309 308 313 313 311 312 313 316 321 324 326 325 321 315 310 304 308 307 312 321 328 317 315 314 311 308 313 312 322 328 335 330 354 336 265 254 276 247 193 160 179 197 163 134
287 294 300 310 315 313 314 317 320 321 322 326 329 331 331 329 323 315 314 315 307 312 312 315 324 338 338 336 325 325 335 343 335 336 342 346 335 272 238 215 165 174 9 341 290 73 78
288 297 309 313 309 314 322 323 322 323 327 330 336 339 339 348 337 330 326 321 333 337 333 310 311 331 333 334 346 298 308 325 327 334 338 355 10 348 338 249 269 21 357 1 292 130 33
292 305 308 310 318 323 324 324 325 328 330 333 341 342 347 356 347 345 336 337 340 326 333 335 336 334 339 349 347 343 305 330 322 316 331 348 354 356 339 341 309 9 356 357 122 333 346
293 299 309 318 323 323 323 325 326 328 331 334 339 344 353 1 344 334 319 322 320 322 325 326 324 324 333 341 315 350 314 324 312 326 315 327 351 347 332 308 317 325 336 7 334 323 316
295 310 317 321 320 321 323 324 328 329 333 330 334 339 346 356 335 320 297 298 282 313 310 316 323 316 303 307 301 314 314 306 310 311 287 295 324 315 291 297 303 313 329 324 310 306 307